Location: Monroe
(41.9160°N, 83.3980°W)
Time: 19:12:14
(UTC-05:00)

Daily predictions for brighter satellites

Satellite Brightness Start Highest point End
(mag) Time Altitude Azimuth Time Altitude Azimuth Time Altitude Azimuth
Aureole 3 4.1 17:30:09 10° N 17:34:52 85° E 17:40:56 10° S
CSL-04 Debris 4.3 17:32:04 10° SSE 17:37:21 57° ENE 17:42:39 10° N
Cosmos 1633 4.2 17:35:14 10° NNE 17:37:31 15° ENE 17:39:46 10° ESE
IDEFIX/ARIANE 42P 3.7 17:32:47 10° S 17:37:50 50° W 17:42:54 10° NNW
Cosmos 1437 2.7 17:36:16 10° S 17:39:24 60° E 17:42:32 10° NNE
BREEZE-M DEB (TANK) 3.1 17:41:29 10° W 17:43:39 42° NNW 17:46:25 10° NE
Cosmos 1833 Rocket 3.6 17:40:06 10° N 17:44:49 27° NE 17:49:31 10° ESE
Cosmos 1908 Rocket 4.1 17:43:02 10° N 17:47:03 36° ENE 17:51:02 10° SE
Cosmos 1733 Rocket 3.1 17:43:57 10° N 17:48:25 89° WSW 17:52:52 10° S
BREEZE-M DEB (TANK) 3.4 17:47:13 10° NNW 17:48:45 18° NNE 17:50:25 11° ENE
Cosmos 1844 4.1 17:43:10 10° SSW 17:48:54 69° WNW 17:54:43 10° NNE
Cosmos 2233 Rocket 4.0 17:46:22 10° S 17:52:32 65° E 17:58:40 10° NNE
CENTAUR R/B 3.2 17:46:39 10° SW 17:52:37 56° NW 17:59:28 10° NNE
Cosmos 2278 Rocket 2.3 17:47:58 10° S 17:53:34 65° ESE 17:59:12 10° NNE
SPOT 3 Rocket 4.5 17:50:39 10° ESE 17:54:53 26° ENE 17:59:09 10° N
ALOS 3.5 17:52:01 10° ESE 17:55:24 20° ENE 17:58:49 10° NNE
Meteor 1-26 Rocket 4.2 17:50:40 10° S 17:56:14 76° E 18:01:46 10° NNE
BREEZE-M DEB (TANK) 2.9 17:55:22 10° SSW 17:57:14 27° SE 17:58:53 14° E
Cosmos 2242 Rocket 4.2 17:53:49 10° SSW 17:58:19 62° W 18:02:49 10° N
CORIOLIS 4.1 17:54:01 10° SSE 17:59:24 69° ENE 18:04:50 10° N
ERBS 3.1 17:56:15 10° NW 17:59:35 55° SW 18:02:55 10° SSE
Cosmos 1862 Rocket 3.8 17:55:48 10° SSW 18:00:12 77° W 18:04:42 10° N
AQUARIUS 4.1 17:58:04 10° SSE 18:02:33 83° ENE 18:07:04 10° NNW
COSMOS 2455 3.2 17:56:34 10° SW 18:02:33 69° WNW 18:08:35 10° NNE
SMAP 3.0 17:58:49 10° SSE 18:03:27 87° ENE 18:08:08 10° NNW
Sich 1 Rocket 3.8 17:59:38 10° N 18:03:54 45° ENE 18:08:11 10° SSE
Timation 1 Rocket 4.5 18:00:16 10° SSW 18:06:15 81° WNW 18:12:19 10° NNE
CZ-4 R/B 1.1 18:04:44 10° SSE 18:08:36 74° ENE 18:12:26 10° N
Meteor 1-28 Rocket 3.1 18:04:56 10° NNE 18:08:39 71° E 18:12:20 10° S
MOS 1 4.5 18:08:18 10° SE 18:13:44 48° ENE 18:19:12 10° N
Cosmos 1606 2.9 18:10:54 10° SSE 18:14:30 44° E 18:18:07 10° NNE
Okean 1-7 3.5 18:11:05 10° SSE 18:15:07 38° E 18:19:13 10° NNE
Cosmos 1484 Rocket 3.4 18:12:53 10° S 18:16:41 60° W 18:20:35 10° NNW
BREEZE-M R/B 2.2 18:14:30 10° NW 18:17:09 74° NNE 18:20:54 13° ESE
CZ-4C R/B 3.6 18:12:57 10° NNW 18:19:06 32° NE 18:24:02 17° E
Landsat 4 3.6 18:16:27 10° NNE 18:20:14 69° ESE 18:24:01 10° S
EO 1 Del DPAF 3.6 18:19:24 12° NNE 18:22:46 43° E 18:26:24 10° S
Cosmos 1763 Rocket 4.2 18:24:30 10° NNW 18:29:35 55° WSW 18:34:34 10° S
Cosmos 1782 Rocket 3.4 18:27:20 10° N 18:31:39 64° E 18:35:59 10° SSE
Meteor 2-6 Rocket 4.2 18:26:26 10° S 18:31:41 53° E 18:37:05 10° NNE
CZ-3A R/B 4.0 18:14:43 10° NW 18:31:51 81° NE 18:37:46 10° SE
Cosmos 2082 Rocket 2.2 18:27:35 10° NNW 18:33:13 60° ENE 18:38:47 10° SE
METEOR-M 4.0 18:30:53 10° SSE 18:36:13 83° ENE 18:41:34 10° NNW
Meteor 1-20 Rocket 4.3 18:31:18 10° NNW 18:36:52 77° W 18:42:19 10° S
USA 116 4.3 18:32:31 10° N 18:36:59 63° WNW 18:40:52 10° SSW
COSMO-SKYMED 1 2.5 18:32:56 10° NNE 18:37:17 71° ESE 18:41:36 10° S
YAOGAN 1 2.7 18:33:26 10° S 18:37:45 75° WSW 18:42:05 10° NNW
Cosmos 1602 4.1 18:35:41 10° N 18:39:18 39° ENE 18:42:54 10° SSE
Cosmos 1782 2.8 18:35:35 10° S 18:39:35 88° W 18:43:38 10° N
ERS-2 2.4 18:42:15 10° S 18:45:54 69° WSW 18:49:35 10° NNW
SL-27 R/B 3.2 18:43:20 10° NNW 18:46:35 51° WSW 18:49:50 10° S
Cosmos 405 Rocket 2.7 18:43:45 10° S 18:47:26 51° E 18:47:47 49° ENE
Cosmos 1072 Rocket 4.4 18:42:39 10° S 18:48:51 84° E 18:55:13 10° N
Nadezhda 4 Rocket 4.2 18:45:15 10° N 18:51:05 44° ENE 18:56:53 10° SSE
Cosmos 44 Rocket 3.4 18:48:49 10° NNW 18:53:36 54° NE 18:55:05 39° ESE
Cosmos 1503 Rocket 4.0 18:48:54 10° SSW 18:54:11 87° WNW 18:58:19 17° NNE
Cosmos 2221 Rocket 3.5 18:50:28 10° S 18:54:52 84° W 18:59:19 10° N
Cosmos 2034 Rocket 4.0 18:49:19 10° S 18:55:36 64° E 19:01:53 10° NNE
Cosmos 540 Rocket 3.4 18:50:56 10° NNW 18:56:09 84° WSW 19:01:17 10° SSE
Timation 2 Rocket 4.4 18:51:28 10° NNW 18:57:56 44° NE 19:00:00 35° E
Lacrosse 5 3.9 18:55:32 10° NW 18:58:20 15° N 18:59:43 13° NNE
Cosmos 968 Rocket 3.8 18:53:37 10° S 18:58:24 41° ESE 18:58:24 41° ESE
USA 234 3.2 18:55:35 29° ENE 18:59:07 73° SE 19:05:39 10° SW
Meteor 1-27 Rocket 3.8 18:55:35 10° S 19:01:22 62° E 19:06:38 13° NNE
Cosmos 292 Rocket 3.6 18:58:59 10° NNW 19:03:45 73° ENE 19:06:28 25° SSE
DMSP B5D1-3 4.4 19:03:07 15° NNE 19:07:24 83° ESE 19:12:33 10° SSW
Cosmos 1092 Rocket 4.3 19:02:18 10° N 19:07:23 40° ENE 19:07:23 40° ENE
Meteor 2-20 4.3 19:03:03 10° N 19:09:09 77° E 19:15:12 10° SSE
Cosmos 1633 4.5 19:09:16 10° NNW 19:12:32 31° W 19:15:48 10° SSW
Okean 2 Rocket 3.4 19:09:12 10° NNW 19:13:43 69° W 19:18:12 10° S
FENGYUN 3A 3.8 19:10:59 10° S 19:16:23 73° WSW 19:21:48 10° NNW
Cosmos 44 3.3 19:17:10 10° NW 19:21:53 79° WSW 19:22:54 55° SSE
Cosmos 1833 Rocket 3.6 19:23:35 10° NW 19:28:58 48° WSW 19:34:19 10° S
ALOS 3.4 19:28:05 10° S 19:32:32 43° W 19:37:00 10° NNW
Cosmos 2297 4.5 19:27:29 10° SW 19:33:00 49° WNW 19:36:14 24° N
Cosmos 2278 Rocket 4.4 19:33:53 10° W 19:38:08 21° NW 19:42:25 10° N
Meteor 1-11 Rocket 4.1 19:34:36 10° NNW 19:40:24 64° W 19:46:02 10° S
USA 229 DEB 4.0 19:42:30 10° SSW 19:47:40 50° SSE 19:47:40 50° SSE
USA 229 4.0 19:42:37 10° SSW 19:47:43 49° SSE 19:47:43 49° SSE
CZ-4C R/B 3.0 20:01:04 10° NW 20:08:18 74° WSW 20:09:18 66° S
USA 234 4.3 20:42:57 38° NW 20:42:57 38° NW 20:47:53 10° W
